Find Starlink 4049

NORAD ID: 52840 Int'l Des: 2022-062 Owner: SPXS Country: US Constellation: starlink operational
LEOCIRCULAR

Live Position

Loading 3D Globe...

About Starlink 4049

Description loading...

Upcoming Passes

Passes for default location (London). Set your location on the main map for personalized predictions.

Altitude History

Loading altitude history...

Two-Line Element Set

1 52840U 22062L 26124.26606998 .00002908 00000-0 12696-3 0 9998
2 52840 53.2154 141.2920 0000778 57.8427 302.2648 15.25394112214224
Epoch: May 4, 2026 • Age: 11 hours

Current Status

Altitude 495.7 km
Velocity 7.62 km/s
Sub-Earth Point 53.22°N, 94.01°E
Launch Date Jun 17, 2022
Age 3.8 years
Type internet

Technical Details

Classification Payload
Mass 297.00 kg
Dry Mass 275.00 kg
Total Mass 297.00 kg
Length 0.20 m
Diameter 2.80 m
Span 9.00 m
Shape Box + pan
Manufacturer SPXS
Bus Type Starlink
Phase Status In Orbit
Owner/State SPXS/US

Most Searched